Regional Weather Roundup
Issued by NWS Albany, NY

Home | Current Version | Previous Version | Text Only | Print | Product List | Glossary On
Versions: 1 2 3 4 5 6 7 8 9 10 11 12 13 14 15 16 17 18 19 20 21 22 23 24 25 26 27 28 29 30 31 32 33 34 35 36 37 38 39 40 41 42 43 44 45 46 47 48 49 50
000
ASUS41 KALY 210110
RWRALY

NEW YORK STATE HOURLY WEATHER ROUNDUP
NATIONAL WEATHER SERVICE ALBANY NY
900 PM EDT SAT SEP 20 2014

NOTE: "FAIR" INDICATES FEW OR NO CLOUDS BELOW 12,000 FEET WITH NO
SIGNIFICANT WEATHER AND/OR NO OBSTRUCTIONS TO VISIBILITY.

NYZ032-033-038>043-046>054-057>066-NYZ062>081-210200-
EAST


CITY           SKY/WX    TMP DP  RH WIND       PRES   REMARKS
ALBANY         PTCLDY    67  56  67 S14G21    30.03S
GLENS FALLS    PTCLDY    65  56  72 S9        30.01S
POUGHKEEPSIE   CLEAR     63  56  78 CALM      30.09S
NEWBURGH       CLEAR     66  57  72 S7        30.11S
MONTGOMERY     CLEAR     62  57  83 CALM      30.10R
WHITE PLAINS   PTCLDY    63  60  90 SE5       30.13R
ISLIP          MOCLDY    65  61  87 E5        30.13S
NEW YORK CITY  PTCLDY    69  62  78 S12       30.11S
CENTRAL PARK   CLEAR     68  61  78 S5        30.14S
$$

NYZ005>009-017-018-044>046-055-056-210200-
CENTRAL


CITY           SKY/WX    TMP DP  RH WIND       PRES   REMARKS
FULTON         CLEAR     67  58  72 VRB3      29.90F
SYRACUSE       PTCLDY    71  58  63 S13       29.91F
ROME           CLOUDY    67  58  72 SE8       29.97F
ELMIRA         CLEAR     69  59  70 S9        29.95F
BINGHAMTON     CLEAR     64  56  75 S13       30.02R
MONTICELLO     CLEAR     63  55  77 S7        30.11S
$$

NYZ026>034-041>043-210200-
NORTH


CITY           SKY/WX    TMP DP  RH WIND       PRES   REMARKS
WATERTOWN      CLEAR     69  56  62 S8        29.87F
FORT DRUM      NOT AVBL
MASSENA        MOCLDY    69  58  67 S15       29.85S
SARANAC LAKE   PTCLDY    61  54  77 SW13      29.93F
PLATTSBURGH    CLEAR     63  57  81 S13       29.90F
$$

NYZ001>004-010>016-019>021-210200-
WEST


CITY           SKY/WX    TMP DP  RH WIND       PRES   REMARKS
NIAGARA FALLS  MOCLDY    72  60  66 S20       29.82S
BUFFALO        PTCLDY    71  59  65 S12       29.85S
DUNKIRK        CLEAR     71  60  68 S17G26    29.86S
JAMESTOWN      PTCLDY    63  61  94 S8        29.94R
WELLSVILLE     CLEAR     66  57  72 S15       29.97S
ROCHESTER      PTCLDY    69  57  65 S8        29.86F
PENN YAN       CLEAR     65  58  78 S6        29.92F
$$

             KEY
       WCI = WIND CHILL INDEX
       VSB = VISIBILITY
       HX  = HEAT INDEX
$$


USA.gov is the U.S. government's official web portal to all federal, state and local government web resources and services.